EW6086 Weather Reports


time (UTC)temp
C
wind
direction
speed
KPH
gust
KPH
rain 1hr
cm
rain 24hr
cm
rain mn
cm
humidity
%
barometer
mb
20260506155855 25 90 0.0 0.0 0.94 19.79 3.84 89 1008.7
20260506155341 25 90 0.0 0.0 1.02 19.79 3.84 89 1008.7
20260506154839 25 90 0.0 0.0 1.14 19.79 3.84 88 1008.6
20260506154608 25 90 0.0 0.0 1.24 19.79 3.84 88 1008.7
20260506153835 26 90 0.0 0.0 1.83 19.79 3.84 88 1008.7
20260506153605 26 90 0.0 0.0 2.13 19.79 3.84 88 1008.6
20260506152830 26 90 0.0 0.0 2.59 19.79 3.84 87 1008.5
20260506152601 26 90 0.0 0.0 2.90 19.79 3.84 87 1008.4
20260506151829 26 90 0.0 0.0 3.00 19.68 3.76 87 1008.3
20260506151329 26 90 0.0 0.0 3.25 19.61 3.66 87 1008.2
20260506150827 26 90 0.0 0.0 3.15 19.38 3.43 86 1008.2
20260506150325 26 90 0.0 0.0 3.07 19.25 3.30 87 1008.1
20260506145823 26 90 0.0 0.0 2.67 18.85 2.92 87 1008.0
20260506145322 26 90 0.0 0.0 2.62 18.77 2.82 87 1008.1
20260506144825 26 90 0.0 0.0 2.54 18.64 2.69 87 1008.0
20260506144324 26 90 0.0 0.0 2.51 18.54 2.59 87 1008.0
20260506143823 26 90 0.0 0.0 1.93 17.96 2.21 87 1007.8
20260506143324 26 90 0.0 0.0 1.63 17.65 1.70 88 1007.8
20260506142819 26 90 0.0 0.0 1.17 17.20 1.27 88 1007.8
20260506142316 26 90 0.0 0.0 0.86 16.89 0.97 88 1007.8
20260506141816 26 90 0.0 0.0 0.66 16.69 0.74 89 1007.8
20260506141316 26 90 0.0 0.0 0.33 16.36 0.43 89 1007.9
20260506141048 26 90 0.0 0.0 0.20 16.23 0.28 89 1008.0
20260506140314 25 90 0.0 0.0 0.15 16.18 0.23 89 1008.0
20260506135816 25 90 0.0 0.0 0.15 16.18 0.23 89 1008.0
20260506135315 25 90 0.0 0.0 0.13 16.15 0.20 89 1008.0
20260506134814 25 90 0.0 0.0 0.08 16.10 0.15 89 1007.9
20260506134316 25 90 0.0 0.0 0.00 16.03 0.10 89 1008.0
20260506133813 25 90 0.0 0.0 0.00 16.03 0.08 89 1008.0
20260506133311 25 90 0.0 0.0 0.00 16.03 0.08 89 1007.9
20260506132811 25 90 0.0 0.0 0.00 16.03 0.08 89 1007.8
20260506132310 25 90 0.0 0.0 0.00 16.03 0.08 89 1007.8
20260506131811 25 90 0.0 0.0 0.00 16.03 0.08 89 1007.8
20260506131311 25 90 0.0 0.0 0.00 16.03 0.08 90 1007.9
20260506130828 25 90 0.0 0.0 0.00 16.03 0.08 90 1007.8
20260506130315 25 90 0.0 0.0 0.00 16.03 0.08 90 1007.9
20260506125812 25 90 0.0 0.0 0.00 16.03 0.08 90 1007.8
20260506125307 25 90 0.0 0.0 0.00 16.03 0.08 90 1007.9
20260506124808 25 90 0.0 0.0 0.00 16.03 0.08 90 1007.8
20260506124307 25 90 0.0 0.0 0.00 16.03 0.08 90 1007.8
20260506123806 25 90 0.0 0.0 0.00 16.03 0.08 90 1007.7
20260506123308 25 90 0.0 0.0 0.00 16.03 0.08 90 1007.7
20260506122807 25 90 0.0 0.0 0.00 16.03 0.08 90 1007.7
20260506122308 25 90 0.0 0.0 0.00 16.03 0.08 90 1007.7
20260506121805 25 90 0.0 0.0 0.00 16.03 0.08 90 1007.6
20260506121538 25 90 0.0 0.0 0.00 16.03 0.08 90 1007.6
20260506121044 25 90 0.0 0.0 0.00 16.03 0.08 90 1007.6
20260506120254 25 90 0.0 0.0 0.00 16.03 0.08 90 1007.5
20260506115749 25 90 0.0 0.0 0.00 16.03 0.08 90 1007.5
20260506114736 25 90 0.0 0.0 0.00 16.03 0.08 89 1007.4
20260506114501 25 90 0.0 0.0 0.00 16.03 0.08 89 1007.3
20260506113724 25 90 0.0 0.0 0.00 16.03 0.08 89 1007.3
20260506113218 25 90 0.0 0.0 0.00 16.03 0.08 89 1007.3
20260506112712 25 90 0.0 0.0 0.00 16.03 0.08 89 1007.3
20260506112207 25 90 0.0 0.0 0.00 16.03 0.08 89 1007.3
20260506111700 25 90 0.0 0.0 0.00 16.03 0.08 89 1007.3
20260506111154 25 90 0.0 0.0 0.00 16.03 0.08 89 1007.3
20260506110648 25 90 0.0 0.0 0.00 16.03 0.08 89 1007.3
20260506110145 25 90 0.0 0.0 0.00 16.03 0.08 89 1007.4
20260506105636 25 90 0.0 0.0 0.00 16.03 0.08 89 1007.4
20260506105130 25 90 0.0 0.0 0.00 16.03 0.08 89 1007.5
20260506104624 25 90 0.0 0.0 0.00 16.03 0.08 89 1007.5
20260506104118 25 90 0.0 0.0 0.00 16.03 0.08 89 1007.3
20260506103613 25 90 0.0 0.0 0.00 16.03 0.08 89 1007.3
20260506103106 25 90 0.0 0.0 0.00 16.03 0.08 89 1007.3
20260506102831 25 90 0.0 0.0 0.00 16.03 0.08 89 1007.3
20260506102055 25 90 0.0 0.0 0.00 16.03 0.08 89 1007.4
20260506101549 25 90 0.0 0.0 0.00 16.03 0.08 89 1007.4
20260506101042 25 90 0.0 0.0 0.00 16.03 0.08 89 1007.3
20260506100809 25 90 0.0 0.0 0.00 16.03 0.08 89 1007.2
20260506100032 25 90 0.0 0.0 0.00 16.03 0.08 89 1007.1
20260506095524 25 90 0.0 0.0 0.00 16.03 0.08 89 1007.0
20260506095018 25 90 0.0 0.0 0.00 16.03 0.08 89 1007.0
20260506094513 25 90 0.0 0.0 0.00 16.03 0.08 89 1007.1
20260506094007 25 90 0.0 0.0 0.00 16.03 0.08 89 1007.1
20260506093500 25 90 0.0 0.0 0.00 16.03 0.08 89 1007.0
20260506092955 25 90 0.0 0.0 0.00 16.03 0.08 89 1007.0
20260506092449 25 90 0.0 0.0 0.00 16.03 0.08 89 1007.0
20260506092214 25 90 0.0 0.0 0.00 16.03 0.08 89 1006.9
20260506091436 25 90 0.0 0.0 0.00 16.03 0.08 89 1007.0
20260506090931 25 90 0.0 0.0 0.00 16.03 0.08 89 1007.0
20260506090425 25 90 0.0 0.0 0.00 16.03 0.08 89 1006.9
20260506085918 25 90 0.0 0.0 0.00 16.03 0.08 89 1007.0
20260506085413 25 90 0.0 0.0 0.00 16.03 0.08 89 1007.1
20260506084907 25 90 0.0 0.0 0.00 16.03 0.08 89 1007.0
20260506084401 25 90 0.0 0.0 0.00 16.03 0.08 89 1006.9
20260506083349 25 90 0.0 0.0 0.00 16.03 0.08 89 1007.0
20260506082842 25 90 0.0 0.0 0.00 16.03 0.08 89 1007.1
20260506082336 25 90 0.0 0.0 0.00 16.03 0.08 89 1007.1
20260506081831 25 90 0.0 0.0 0.00 16.03 0.08 89 1007.0
20260506081324 25 90 0.0 0.0 0.00 16.03 0.08 89 1007.0
20260506080818 25 90 0.0 0.0 0.00 16.03 0.08 89 1007.1
20260506080312 25 90 0.0 0.0 0.00 16.03 0.08 89 1007.3
20260506073237 25 90 0.0 0.0 0.00 16.03 0.08 88 1007.5
20260506072730 25 90 0.0 0.0 0.00 16.03 0.08 88 1007.6
20260506072224 25 90 0.0 0.0 0.00 16.03 0.08 88 1007.6
20260506071719 25 90 0.0 0.0 0.03 16.03 0.08 88 1007.7
20260506071213 25 90 0.0 0.0 0.03 16.03 0.08 88 1008.0
20260506070943 25 90 0.0 0.0 0.03 16.03 0.08 88 1008.0
20260506070209 25 90 0.0 0.0 0.03 16.03 0.08 88 1008.0
20260506062208 25 90 0.0 0.0 0.05 16.03 0.08 88 1008.2
20260506061707 25 90 0.0 0.0 0.03 16.00 0.05 88 1008.2
20260506061208 25 90 0.0 0.0 0.03 16.00 0.05 88 1008.2
20260506060708 25 90 0.0 0.0 0.03 16.00 0.05 88 1008.2
20260506060208 25 90 0.0 0.0 0.03 16.00 0.05 88 1008.2
20260506051220 25 90 0.0 0.0 0.38 15.98 0.03 87 1007.9
20260506050708 25 90 0.0 0.0 0.38 15.98 0.03 88 1007.9
20260506050209 25 90 0.0 0.0 0.46 15.98 0.03 88 1007.9
20260506044437 25 90 0.0 0.0 1.22 15.88 16.84 88 1007.8
20260506043937 25 90 0.0 0.0 1.24 15.85 16.84 87 1007.8
20260506043205 25 90 0.0 0.0 1.17 15.72 16.69 88 1007.7
20260506042704 25 90 0.0 0.0 1.19 15.72 16.69 88 1007.7
20260506042204 25 90 0.0 0.0 1.14 15.67 16.66 87 1007.8
20260506041704 25 90 0.0 0.0 1.22 15.65 16.61 87 1007.7
20260506041206 25 90 0.0 0.0 1.27 15.60 16.56 87 1007.8
20260506040706 25 90 0.0 0.0 1.27 15.60 16.56 87 1007.8
20260506040205 25 90 0.0 0.0 1.19 15.52 16.48 87 1007.9
20260506035705 25 90 0.0 0.0 1.04 15.29 16.31 87 1007.8
20260506035203 25 90 0.0 0.0 0.81 14.99 15.98 87 1007.7
20260506034933 25 90 0.0 0.0 0.61 14.78 15.80 87 1007.7
20260506034200 25 90 0.0 0.0 0.53 14.66 15.62 87 1007.7
20260506033658 25 90 0.0 0.0 0.53 14.61 15.60 87 1007.7
20260506033158 25 90 0.0 0.0 0.53 14.55 15.54 87 1007.7
20260506032924 25 90 0.0 0.0 0.56 14.53 15.49 87 1007.6
20260506032147 25 90 0.0 0.0 0.66 14.53 15.49 87 1007.5
20260506031911 25 90 0.0 0.0 0.53 14.40 15.39 87 1007.5
20260506031134 25 90 0.0 0.0 0.48 14.33 15.29 87 1007.5
20260506030629 25 90 0.0 0.0 0.58 14.33 15.29 88 1007.4
20260506030123 25 90 0.0 0.0 0.69 14.33 15.29 88 1007.3
20260506025617 25 90 0.0 0.0 0.69 14.25 15.21 88 1007.2
20260506025110 25 90 0.0 0.0 0.71 14.17 15.14 88 1007.2
20260506024604 25 90 0.0 0.0 0.91 14.17 15.14 88 1007.1
20260506024058 25 90 0.0 0.0 1.04 14.12 15.09 88 1007.0
20260506023552 25 90 0.0 0.0 1.07 14.07 15.04 88 1006.9
20260506023046 25 90 0.0 0.0 1.04 14.02 14.99 88 1007.0
20260506022541 25 90 0.0 0.0 1.02 13.94 14.94 88 1006.9
20260506022036 25 90 0.0 0.0 0.99 13.87 14.83 88 1006.8
20260506021542 25 90 0.0 0.0 1.04 13.87 14.83 88 1006.9
20260506021023 25 90 0.0 0.0 1.04 13.84 14.81 88 1006.7
20260506020516 25 90 0.0 0.0 1.07 13.74 14.71 88 1006.6
20260506020239 25 90 0.0 0.0 1.22 13.64 14.61 88 1006.5
20260506015502 25 90 0.0 0.0 1.14 13.49 14.45 87 1006.5
20260506014957 25 90 0.0 0.0 1.17 13.44 14.40 87 1006.5
20260506014721 25 90 0.0 0.0 1.14 13.16 14.22 87 1006.5
20260506013945 25 90 0.0 0.0 1.22 13.08 14.05 87 1006.5
20260506013439 25 90 0.0 0.0 1.35 13.00 13.97 87 1006.4
20260506012933 25 90 0.0 0.0 1.75 12.98 13.94 87 1006.3
20260506012427 25 90 0.0 0.0 1.96 12.90 13.89 87 1006.2
20260506011921 25 90 0.0 0.0 2.18 12.83 13.79 87 1006.2
20260506011414 25 90 0.0 0.0 2.46 12.83 13.79 87 1006.2
20260506010908 25 90 0.0 0.0 2.36 12.73 13.69 87 1006.1
20260506010415 25 90 0.0 0.0 2.36 12.65 13.61 87 1006.0
20260506005857 25 90 0.0 0.0 2.39 12.42 13.39 87 1005.8
20260506005350 25 90 0.0 0.0 2.36 12.29 13.26 86 1005.9
20260506005117 25 90 0.0 0.0 2.49 12.19 13.16 86 1005.6
20260506004338 25 90 0.0 0.0 2.34 12.01 12.98 86 1005.6
20260506003833 25 90 0.0 0.0 2.08 11.68 12.80 86 1005.7
20260506003326 25 90 0.0 0.0 2.01 11.56 12.52 86 1005.7
20260506002820 26 90 0.0 0.0 1.70 11.23 12.19 86 1005.6
20260506002545 26 90 0.0 0.0 1.42 10.90 11.86 86 1005.6
20260506001302 26 90 0.0 0.0 1.14 10.36 11.33 86 1005.6
20260506001027 26 90 0.0 0.0 1.22 10.29 11.25 86 1005.7
20260506000251 26 90 0.0 0.0 1.32 10.29 11.25 86 1005.7
20260505235744 26 90 0.0 0.0 1.14 10.01 11.00 86 1005.7
20260505235510 26 90 0.0 0.0 1.07 9.91 10.90 85 1005.6
20260505234732 26 90 0.0 0.0 0.91 9.70 10.67 85 1005.7
20260505234457 26 90 0.0 0.0 0.91 9.65 10.62 85 1005.7
20260505233720 26 90 0.0 0.0 0.94 9.60 10.57 85 1005.8
20260505233215 26 90 0.0 0.0 1.04 9.55 10.52 85 1005.8
20260505232708 26 90 0.0 0.0 1.02 9.53 10.49 85 1005.9
20260505232202 26 90 0.0 0.0 1.07 9.47 10.44 85 1005.8
20260505231656 26 90 0.0 0.0 0.86 9.25 10.21 85 1005.8
20260505231150 26 90 0.0 0.0 1.19 9.22 10.19 85 1005.8
20260505230644 27 90 0.0 0.0 1.27 9.07 10.03 85 1005.8
20260505230410 27 90 0.0 0.0 1.19 8.94 9.93 85 1006.0
20260505225126 27 90 0.0 0.0 1.35 8.84 9.80 84 1005.9
20260505224621 27 90 0.0 0.0 1.47 8.79 9.75 84 1005.9
20260505224114 27 90 0.0 0.0 1.52 8.69 9.65 84 1006.0
20260505223608 27 90 0.0 0.0 1.65 8.56 9.53 84 1006.0
20260505223102 27 90 0.0 0.0 1.65 8.51 9.47 84 1006.0
20260505222557 27 90 0.0 0.0 1.73 8.51 9.47 84 1006.1
20260505222051 27 90 0.0 0.0 1.63 8.41 9.37 84 1006.2
20260505221550 27 90 0.0 0.0 1.60 8.33 9.35 84 1006.2
20260505221047 27 90 0.0 0.0 1.35 8.00 8.99 84 1006.2
20260505220547 27 90 0.0 0.0 1.32 7.80 8.76 84 1006.2
20260505220331 27 90 0.0 0.0 1.32 7.72 8.69 84 1006.3
20260505215546 27 90 0.0 0.0 1.37 7.57 8.56 84 1006.4
20260505215043 27 90 0.0 0.0 1.40 7.44 8.41 84 1006.4
20260505214542 27 90 0.0 0.0 1.32 7.24 8.28 84 1006.5
20260505214042 27 90 0.0 0.0 1.75 7.16 8.15 84 1006.6
20260505213542 27 90 0.0 0.0 1.60 6.91 7.87 84 1006.7
20260505213040 27 90 0.0 0.0 1.75 6.86 7.82 84 1006.7
20260505212539 27 90 0.0 0.0 1.88 6.78 7.77 84 1006.8
20260505212036 27 90 0.0 0.0 2.08 6.78 7.75 84 1006.8
20260505211535 27 90 0.0 0.0 2.16 6.73 7.70 84 1006.8
20260505211033 27 90 0.0 0.0 2.18 6.63 7.62 84 1006.8
20260505210804 27 90 0.0 0.0 2.11 6.48 7.44 84 1006.9
20260505210303 27 90 0.0 0.0 2.21 6.40 7.37 83 1006.9
20260505205532 28 90 0.0 0.0 2.36 6.20 7.16 83 1006.9
20260505205029 28 90 0.0 0.0 2.54 6.05 7.04 83 1007.0
20260505204804 28 90 0.0 0.0 2.57 5.92 6.91 83 1007.0
20260505204029 27 90 0.0 0.0 2.06 5.41 6.38 84 1007.1
20260505203528 27 90 0.0 0.0 2.03 5.31 6.27 84 1007.1
20260505203029 27 90 0.0 0.0 1.85 5.11 6.07 84 1007.3
20260505202757 27 90 0.0 0.0 1.65 4.90 5.89 84 1007.3
20260505202023 27 90 0.0 0.0 1.50 4.70 5.66 84 1007.4
20260505201755 27 90 0.0 0.0 1.37 4.57 5.56 84 1007.4
20260505201256 27 90 0.0 0.0 1.30 4.45 5.41 84 1007.4
20260505200523 27 90 0.0 0.0 1.24 4.37 5.33 84 1007.5
20260505200021 27 90 0.0 0.0 1.02 4.14 5.11 84 1007.6
20260505195521 27 90 0.0 0.0 0.81 3.84 4.80 84 1007.6
20260505195021 27 90 0.0 0.0 0.56 3.51 4.50 84 1007.6
20260505194523 27 90 0.0 0.0 0.71 3.35 4.32 84 1007.7
20260505194021 27 90 0.0 0.0 0.94 3.35 4.32 84 1007.7
20260505193522 27 90 0.0 0.0 0.91 3.28 4.24 84 1007.8
20260505193021 27 90 0.0 0.0 0.97 3.25 4.22 84 1007.9
20260505192522 27 90 0.0 0.0 1.04 3.25 4.22 84 1007.9
20260505192021 27 90 0.0 0.0 1.14 3.20 4.17 84 1007.9
20260505191522 27 90 0.0 0.0 1.30 3.20 4.17 84 1008.0
20260505191021 27 90 0.0 0.0 1.30 3.15 4.11 84 1008.0
20260505190521 27 90 0.0 0.0 1.30 3.12 4.09 84 1008.0
20260505190021 27 90 0.0 0.0 1.40 3.12 4.09 84 1008.1
20260505185519 27 90 0.0 0.0 1.35 3.02 4.04 84 1008.1
20260505185020 27 90 0.0 0.0 1.32 2.95 3.91 84 1008.0
20260505184517 27 90 0.0 0.0 1.07 2.64 3.78 84 1008.0
20260505184017 27 90 0.0 0.0 1.02 2.41 3.38 84 1008.0
20260505183515 27 90 0.0 0.0 1.09 2.36 3.33 84 1008.1
20260505183246 27 90 0.0 0.0 1.17 2.29 3.25 83 1008.1
20260505182513 27 90 0.0 0.0 1.24 2.21 3.17 83 1008.2
20260505182013 27 90 0.0 0.0 1.19 2.06 3.02 83 1008.1
20260505181507 27 90 0.0 0.0 1.14 1.91 2.87 83 1008.1
20260505181001 28 90 0.0 0.0 1.17 1.85 2.82 82 1008.2
20260505180456 28 90 0.0 0.0 1.17 1.83 2.79 82 1008.2
20260505180222 28 90 0.0 0.0 1.24 1.73 2.69 82 1008.2
20260505175714 28 90 0.0 0.0 1.24 1.68 2.64 82 1008.3
20260505174432 27 90 0.0 0.0 1.19 1.55 2.54 83 1008.3
20260505173925 27 90 0.0 0.0 1.14 1.37 2.34 83 1008.4
20260505173420 27 90 0.0 0.0 1.14 1.27 2.24 83 1008.5
20260505172919 27 90 0.0 0.0 1.02 1.12 2.08 84 1008.5
20260505172408 27 90 0.0 0.0 0.86 0.97 1.93 84 1008.6
20260505171901 27 90 0.0 0.0 0.79 0.86 1.83 84 1008.6
20260505171356 27 90 0.0 0.0 0.69 0.71 1.68 84 1008.6
20260505170854 27 90 0.0 0.0 0.69 0.69 1.65 84 1008.6
20260505170344 27 90 0.0 0.0 0.64 0.64 1.63 84 1008.7
20260505165837 26 90 0.0 0.0 0.48 0.48 1.45 84 1008.8
20260505165332 27 90 0.0 0.0 0.43 0.43 1.40 84 1008.8
20260505165058 27 90 0.0 0.0 0.38 0.38 1.37 84 1008.8
20260505164550 27 90 0.0 0.0 0.33 0.33 1.32 84 1008.7
20260505163813 27 90 0.0 0.0 0.23 0.23 1.19 84 1008.6
20260505163307 27 90 0.0 0.0 0.13 0.13 1.09 84 1008.6
20260505163032 27 90 0.0 0.0 0.10 0.10 1.07 84 1008.6
20260505162256 27 90 0.0 0.0 0.10 0.10 1.07 84 1008.6
20260505161751 27 90 0.0 0.0 0.08 0.08 1.04 84 1008.6
20260505161249 27 90 0.0 0.0 0.03 0.03 0.99 84 1008.6
20260505160750 27 90 0.0 0.0 0.00 0.00 0.97 83 1008.6